Zurück zum Katalog

CZ-6A DEB

AktivPO
NORAD 55196·DEBRIS·🇨🇳 China

Gestartet Nov 11, 2022 von Taiyuan Satellite Launch Center

Loading…

Nächste Überflüge (nächste 24 Stunden)

TLE

AktuellSource: Space-Track

Epoche: Sep 13, 2026, 19:10 UTC

1 55196U 22151VM  26256.79863157  .00010702  00000-0  12340-2 0  9996
2 55196  98.6274 339.6809 0055633 334.0512  25.7913 14.84752418198810

Verfolge CZ-6A DEB in Echtzeit mit AllMySat

Download on the App Store